Location: Avon
(37.7514°N, 90.2235°W)
Time: 18:47:00
(UTC+00:00)

Explorer 11/Cluster Stage 4 - Pass Details

Date: 13 October 2025
Orbit: 463 x 1182 km, 28.8° (Epoch: 13 November)

Event Time Altitude Azimuth Distance (km) Brightness Sun altitude
Exits shadow 10:29:56 13° 213° (SSW) 2,749 9.0 -20.1°
Maximum altitude 10:30:37 14° 207° (SSW) 2,751 9.0 -20.0°
Drops below altitude 10° 10:34:03 10° 180° (S) 3,062 9.5 -19.3°
Sets 10:38:43 0° 156° (SSE) 4,052 10.5 -18.4°
